Christchurch, New Zealand

1:13 AM NZST on April 27, 2017 (GMT +1200)
Christchurch International

Weather History for NZCH - May, 2013

Change the Weather History Date:

Thursday, May 16, 2013

  Actual Average Record
Temperature  
Mean Temperature 52 °F -  
Max Temperature 57 °F 53 °F 77 °F (1999)
Min Temperature 46 °F 35 °F 28 °F (2014)
Degree Days  
Heating Degree Days 14    
Growing Degree Days 2 (Base 50)    
Moisture  
Dew Point 49 °F    
Average Humidity 94    
Maximum Humidity 100    
Minimum Humidity 82    
Precipitation  
Precipitation 0.00 in - - ()
Sea Level Pressure  
Sea Level Pressure 29.98 in    
Wind  
Wind Speed 5 mph ()    
Max Wind Speed 14 mph    
Max Gust Speed -    
Visibility 5.6 miles    
Events Fog    
Averages and records for this station are not official NWS values.
T = Trace of Precipitation, MM = Missing Value Source: Averaged Metar Reports

Daily Weather History Graph

Daily Weather History Graph

Search for Another Location

Airport or City:

Trip Planner

Search our weather history database for the weather conditions in past years. The results will help you decide how hot, cold, wet, or windy it might be!

Date:

Astronomy

May. 16, 2013 Rise Set
Actual Time 7:37 AM NZST 5:14 PM NZST
Civil Twilight 7:06 AM NZST 5:45 PM NZST
Nautical Twilight 6:31 AM NZST 6:20 PM NZST
Astronomical Twilight 5:57 AM NZST 6:54 PM NZST
Moon 12:00 PM NZST (5/16) 10:25 PM NZST (5/16)
Length of Visible Light 10h 39m
Length of Day
9h 36m
Waxing Crescent, 29% of the Moon is Illuminated
May 16
Waxing Crescent
May 18
First Quarter
May 25
Full
Jun 1
Last Quarter
Jun 9
New

Hourly Weather History & Observations

Time (NZST) Temp. Windchill Dew Point Humidity Pressure Visibility Wind Dir Wind Speed Gust Speed Precip Events Conditions
12:00 AM 51.8 °F - 51.8 °F 100% 30.06 in 6.2 mi East 5.8 mph - N/A   Overcast
12:40 AM 51.8 °F - 50.0 °F 94% 30.06 in 6.2 mi NNE 3.5 mph - N/A   Partly Cloudy
1:00 AM 51.8 °F - 50.0 °F 94% 30.06 in 6.2 mi North 4.6 mph - N/A   Mostly Cloudy
2:00 AM 50.0 °F - 50.0 °F 100% 30.04 in 6.2 mi NNW 3.5 mph - N/A   Mostly Cloudy
3:00 AM 50.0 °F - 50.0 °F 100% 30.04 in 6.2 mi North 4.6 mph - N/A   Mostly Cloudy
4:00 AM 50.0 °F - 50.0 °F 100% 30.04 in 6.2 mi NNW 2.3 mph - N/A   Mostly Cloudy
5:00 AM 50.0 °F - 48.2 °F 94% 30.01 in 6.2 mi WNW 2.3 mph - N/A   Mostly Cloudy
6:00 AM 50.0 °F - 48.2 °F 94% 30.04 in 6.2 mi NNW 2.3 mph - N/A   Mostly Cloudy
6:15 AM 48.2 °F - 48.2 °F 100% 30.04 in 6.2 mi NNW 3.5 mph - N/A   Mostly Cloudy
7:00 AM 48.2 °F - 48.2 °F 100% 30.04 in 6.2 mi North 3.5 mph - N/A   Mostly Cloudy
8:00 AM 48.2 °F - 46.4 °F 93% 30.04 in 6.2 mi NNE 4.6 mph - N/A   Mostly Cloudy
9:00 AM 48.2 °F - 48.2 °F 100% 30.04 in 6.2 mi NNE 3.5 mph - N/A   Mostly Cloudy
10:00 AM 50.0 °F - 48.2 °F 94% 30.01 in 6.2 mi NNE 6.9 mph - N/A   Mostly Cloudy
11:00 AM 53.6 °F - 50.0 °F 88% 30.01 in 6.2 mi NE 8.1 mph - N/A   Mostly Cloudy
12:00 PM 57.2 °F - 51.8 °F 82% 29.98 in 6.2 mi East 11.5 mph - N/A   Mostly Cloudy
1:00 PM 55.4 °F - 50.0 °F 82% 29.98 in 6.2 mi ENE 13.8 mph - N/A   Overcast
2:00 PM 55.4 °F - 50.0 °F 82% 29.95 in 6.2 mi ENE 10.4 mph - N/A   Overcast
3:00 PM 53.6 °F - 50.0 °F 88% 29.92 in 6.2 mi ENE 12.7 mph - N/A   Mostly Cloudy
4:00 PM 53.6 °F - 50.0 °F 88% 29.92 in 6.2 mi ENE 12.7 mph - N/A   Mostly Cloudy
5:00 PM 51.8 °F - 50.0 °F 94% 29.92 in 6.2 mi ENE 11.5 mph - N/A   Mostly Cloudy
6:00 PM 51.8 °F - 48.2 °F 88% 29.92 in 6.2 mi ENE 11.5 mph - N/A   Mostly Cloudy
7:00 PM 51.8 °F - 50.0 °F 94% 29.92 in 6.2 mi NE 9.2 mph - N/A   Mostly Cloudy
8:00 PM 50.0 °F - 48.2 °F 94% 29.92 in 6.2 mi NNE 5.8 mph - N/A   Partly Cloudy
9:00 PM 46.4 °F 45.2 °F 46.4 °F 100% 29.89 in 6.2 mi North 3.5 mph - N/A   Partly Cloudy
9:30 PM 46.4 °F 44.3 °F 46.4 °F 100% 29.89 in 0.6 mi NNW 4.6 mph - N/A Fog Fog
10:00 PM 46.4 °F 45.2 °F 46.4 °F 100% 29.89 in 0.6 mi NNW 3.5 mph - N/A Fog Fog
11:00 PM 50.0 °F - 48.2 °F 94% 29.89 in 0.5 mi NW 3.5 mph - N/A Fog Fog